DW0416 Weather Reports


Display with metric or nautical units.
time (UTC)temp
F
wind
direction
speed
MPH
gust
MPH
rain 1hr
in
rain 24hr
in
rain mn
in
humidity
%
barometer
mb
20260902234530 72 200 2.0 11.0 0.00 0.02 0.01 23 1016.4
20260902233032 74 255 2.0 5.0 0.00 0.02 0.01 26 1016.4
20260902231529 73 173 3.0 6.0 0.00 0.02 0.01 24 1016.4
20260902230027 72 152 3.0 12.0 0.00 0.02 0.01 25 1016.3
20260902224543 72 171 2.0 8.0 0.00 0.02 0.01 28 1016.4
20260902223046 72 211 2.0 8.0 0.00 0.02 0.01 27 1016.5
20260902221543 72 166 7.0 17.0 0.00 0.02 0.01 27 1016.4
20260902220043 73 173 5.0 12.0 0.00 0.02 0.01 27 1016.1
20260902214531 73 194 2.0 16.0 0.00 0.02 0.01 28 1016.1
20260902213030 73 166 1.0 11.0 0.00 0.02 0.01 29 1016.2
20260902211532 72 310 4.0 12.0 0.00 0.02 0.01 29 1016.7
20260902210031 72 146 3.0 15.0 0.00 0.02 0.01 32 1016.7
20260902204528 71 165 5.0 9.0 0.00 0.02 0.01 32 1016.7
20260902203028 70 214 3.0 7.0 0.00 0.02 0.01 33 1016.8
20260902201544 69 253 3.0 9.0 0.00 0.02 0.01 33 1016.9
20260902200037 69 183 6.0 14.0 0.00 0.02 0.01 37 1016.7
20260902194535 69 60 7.0 18.0 0.00 0.02 0.01 37 1016.7
20260902193038 70 82 8.0 14.0 0.00 0.02 0.01 39 1016.8
20260902191513 69 116 4.0 13.0 0.00 0.02 0.01 40 1017.2
20260902190012 70 101 6.0 18.0 0.00 0.02 0.01 37 1017.5
20260902184532 70 179 7.0 14.0 0.00 0.02 0.01 36 1017.6
20260902183031 68 319 7.0 15.0 0.00 0.02 0.01 39 1017.8
20260902181529 66 134 8.0 15.0 0.00 0.02 0.01 42 1018.1
20260902180007 64 163 8.0 18.0 0.00 0.02 0.01 46 1018.3
20260902174514 65 127 11.0 22.0 0.00 0.02 0.01 45 1018.5
20260902173024 65 153 2.0 9.0 0.00 0.02 0.01 58 1017.9
20260902171524 67 237 1.0 7.0 0.00 0.02 0.01 50 1017.9
20260902170033 65 191 3.0 6.0 0.00 0.02 0.01 63 1017.8
20260902164513 63 245 3.0 4.0 0.00 0.02 0.01 62 1018.3
20260902163016 60 129 1.0 3.0 0.00 0.02 0.01 70 1018.4
20260902161524 58 257 0.0 2.0 0.00 0.02 0.01 73 1018.4
20260902160024 57 145 1.0 6.0 0.00 0.02 0.01 75 1018.5
20260902154532 56 106 0.0 2.0 0.00 0.02 0.01 76 1018.6
20260902153037 55 273 1.0 2.0 0.00 0.02 0.01 79 1018.7
20260902151514 53 335 0.0 0.0 0.00 0.02 0.01 81 1018.9
20260902150025 52 162 0.0 0.0 0.00 0.04 0.01 83 1018.9
20260902144529 50 98 0.0 0.0 0.00 0.05 0.01 87 1019.1
20260902143033 49 161 0.0 0.0 0.00 0.05 0.01 90 1019.2
20260902141518 48 155 0.0 0.0 0.00 0.05 0.01 90 1019.3
20260902140019 48 264 0.0 0.0 0.00 0.05 0.01 91 1019.3
20260902134540 48 235 0.0 0.0 0.00 0.06 0.01 91 1019.3
20260902133031 47 150 0.0 0.0 0.00 0.06 0.01 91 1019.3
20260902131540 47 356 0.0 0.0 0.00 0.06 0.01 91 1019.4
20260902130014 47 356 0.0 0.0 0.00 0.06 0.01 90 1019.4
20260902124528 48 237 0.0 0.0 0.00 0.08 0.01 89 1019.3
20260902123034 49 129 0.0 2.0 0.00 0.09 0.01 86 1019.1
20260902121535 50 73 1.0 3.0 0.00 0.09 0.01 87 1019.2
20260902120004 49 74 0.0 2.0 0.00 0.10 0.01 89 1019.3
20260902114511 49 18 0.0 1.0 0.00 0.10 0.01 88 1019.4
20260902113003 49 13 0.0 2.0 0.00 0.10 0.01 88 1019.5
20260902111508 49 30 0.0 2.0 0.00 0.10 0.01 87 1019.5
20260902110009 52 236 0.0 5.0 0.00 0.10 0.01 83 1019.5
20260902104514 51 79 3.0 4.0 0.00 0.10 0.01 85 1019.5
20260902103009 51 123 0.0 4.0 0.00 0.10 0.01 81 1019.9
20260902101522 52 34 2.0 5.0 0.00 0.10 0.01 81 1019.6
20260902100020 52 12 1.0 3.0 0.00 0.10 0.01 83 1019.7
20260902094510 52 352 0.0 4.0 0.00 0.10 0.01 83 1019.8
20260902093020 52 24 3.0 11.0 0.00 0.10 0.01 82 1019.9
20260902091510 53 155 5.0 11.0 0.01 0.11 0.01 81 1019.8
20260902090009 56 140 5.0 9.0 0.01 0.11 0.01 75 1019.7
20260902084513 56 225 4.0 12.0 0.01 0.11 0.01 74 1020.4
20260902083014 55 117 6.0 14.0 0.01 0.11 0.01 76 1020.5
20260902081511 52 130 4.0 12.0 0.00 0.10 0.00 83 1020.9
20260902080015 49 141 4.0 6.0 0.00 0.10 0.00 86 1020.6
20260902074524 49 148 0.0 0.0 0.00 0.10 0.00 87 1019.5
20260902073023 49 46 0.0 2.0 0.00 0.10 0.00 88 1019.5
20260902071513 48 31 0.0 0.0 0.00 0.10 0.00 88 1019.5
20260902070020 48 39 0.0 0.0 0.00 0.10 0.00 89 1019.7
20260902064511 48 344 0.0 1.0 0.00 0.10 0.00 88 1019.8
20260902063030 49 15 0.0 2.0 0.00 0.10 0.00 87 1019.7
20260902061532 49 252 1.0 1.0 0.00 0.10 0.00 86 1019.6
20260902060020 50 114 0.0 1.0 0.00 0.10 0.00 84 1019.8
20260902054518 50 114 0.0 1.0 0.00 0.10 0.10 82 1019.9
20260902053016 51 114 0.0 1.0 0.00 0.10 0.10 82 1019.9
20260902051523 52 142 0.0 1.0 0.00 0.10 0.10 82 1020.0
20260902050017 52 164 0.0 2.0 0.00 0.10 0.10 82 1019.9
20260902044518 52 113 0.0 1.0 0.00 0.10 0.10 81 1020.1
20260902043016 53 127 0.0 2.0 0.00 0.10 0.10 75 1020.1
20260902041533 54 56 0.0 1.0 0.00 0.10 0.10 75 1019.9
20260902040034 55 340 2.0 5.0 0.00 0.10 0.10 72 1019.7
20260902034519 55 23 4.0 5.0 0.01 0.10 0.10 74 1019.9
20260902033019 57 6 3.0 6.0 0.01 0.10 0.10 70 1019.7
20260902031523 59 274 3.0 12.0 0.01 0.10 0.10 66 1019.5
20260902030012 58 46 14.0 17.0 0.01 0.10 0.10 65 1019.3
20260902024530 60 117 4.0 7.0 0.00 0.09 0.09 64 1020.2
20260902023029 63 53 5.0 8.0 0.00 0.09 0.09 46 1019.2
20260902021521 65 256 2.0 18.0 0.00 0.09 0.09 42 1019.7
20260902020003 68 116 4.0 11.0 0.00 0.09 0.09 41 1019.2
20260902014512 69 146 0.0 2.0 0.00 0.09 0.09 51 1018.5
20260902013014 71 182 0.0 1.0 0.00 0.09 0.09 46 1018.3
20260902011527 72 170 0.0 1.0 0.00 0.09 0.09 44 1018.3
20260902010026 70 139 0.0 5.0 0.00 0.09 0.09 46 1018.4
20260902004517 71 148 0.0 3.0 0.00 0.09 0.09 45 1018.3
20260902003011 72 122 1.0 2.0 0.00 0.09 0.09 45 1018.4
20260902001521 74 141 2.0 5.0 0.00 0.09 0.09 43 1018.5
20260902000026 73 270 2.0 6.0 0.00 0.09 0.09 43 1018.7